Time,TemperatureF,DewpointF,PressureIn,WindDirection,WindDirectionDegrees,WindSpeedMPH,WindSpeedGustMPH,Humidity,HourlyPrecipIn,Conditions,Clouds,dailyrainin,SoftwareType,DateUTC
2013-11-16 00:01:00,62.6,58.0,30.03,West,261,0.0,0.0,85,0.00,,---,0.00,VWS V14.01,2013-11-16 05:01:00,
2013-11-16 00:02:00,62.6,58.0,30.03,West,261,0.0,0.0,85,0.00,,---,0.00,VWS V14.01,2013-11-16 05:02:00,
2013-11-16 00:07:00,62.4,57.9,30.00,West,261,0.0,0.0,85,0.00,,---,0.00,VWS V14.01,2013-11-16 05:07:00,
2013-11-16 00:12:00,62.2,57.7,30.00,West,261,0.0,0.0,85,0.00,,---,0.00,VWS V14.01,2013-11-16 05:12:00,
2013-11-16 00:17:00,62.2,57.7,30.00,West,261,0.0,0.0,85,0.00,,---,0.00,VWS V14.01,2013-11-16 05:17:00,
2013-11-16 00:22:00,62.1,57.5,30.00,West,261,0.0,0.0,85,0.00,,---,0.00,VWS V14.01,2013-11-16 05:22:00,
2013-11-16 00:27:00,62.1,57.5,30.00,West,261,0.0,0.0,85,0.00,,---,0.00,VWS V14.01,2013-11-16 05:27:00,
2013-11-16 00:32:00,61.9,57.3,30.00,West,261,0.0,0.0,85,0.00,,---,0.00,VWS V14.01,2013-11-16 05:32:00,
2013-11-16 00:37:00,61.7,57.2,30.00,West,261,0.0,0.0,85,0.00,,---,0.00,VWS V14.01,2013-11-16 05:37:00,
2013-11-16 00:42:00,61.5,57.0,30.00,West,261,0.0,0.0,85,0.00,,---,0.00,VWS V14.01,2013-11-16 05:42:00,
2013-11-16 00:47:00,61.3,56.8,30.00,West,261,0.0,0.0,85,0.00,,---,0.00,VWS V14.01,2013-11-16 05:47:00,
2013-11-16 00:52:00,61.2,56.6,30.00,West,261,0.0,0.0,85,0.00,,---,0.00,VWS V14.01,2013-11-16 05:52:00,
2013-11-16 00:57:00,61.2,56.6,30.00,West,261,0.0,0.0,85,0.00,,---,0.00,VWS V14.01,2013-11-16 05:57:00,
2013-11-16 01:02:00,61.0,56.5,30.00,West,261,0.0,0.0,85,0.00,,---,0.00,VWS V14.01,2013-11-16 06:02:00,
2013-11-16 01:07:00,60.8,56.3,30.00,West,261,0.0,0.0,85,0.00,,---,0.00,VWS V14.01,2013-11-16 06:07:00,
2013-11-16 01:12:00,60.6,56.1,30.00,West,261,0.0,0.0,85,0.00,,---,0.00,VWS V14.01,2013-11-16 06:12:00,
2013-11-16 01:17:00,60.6,56.4,30.00,West,261,0.0,0.0,86,0.00,,---,0.00,VWS V14.01,2013-11-16 06:17:00,
2013-11-16 01:22:00,60.6,56.4,30.00,West,261,0.0,0.0,86,0.00,,---,0.00,VWS V14.01,2013-11-16 06:22:00,
2013-11-16 01:27:00,60.6,56.4,30.00,West,261,0.0,0.0,86,0.00,,---,0.00,VWS V14.01,2013-11-16 06:27:00,
2013-11-16 01:32:00,60.6,56.4,30.00,West,261,0.0,0.0,86,0.00,,---,0.00,VWS V14.01,2013-11-16 06:32:00,
2013-11-16 01:37:00,60.6,56.7,30.00,West,261,0.0,0.0,87,0.00,,---,0.00,VWS V14.01,2013-11-16 06:37:00,
2013-11-16 01:42:00,60.6,56.7,30.00,West,261,0.0,0.0,87,0.00,,---,0.00,VWS V14.01,2013-11-16 06:42:00,
2013-11-16 01:47:00,60.8,56.6,30.00,West,261,0.0,0.0,86,0.00,,---,0.00,VWS V14.01,2013-11-16 06:47:00,
2013-11-16 01:52:00,60.8,56.9,30.00,West,261,0.0,0.0,87,0.00,,---,0.00,VWS V14.01,2013-11-16 06:52:00,
2013-11-16 01:57:00,61.0,57.1,30.00,West,261,0.0,0.0,87,0.00,,---,0.00,VWS V14.01,2013-11-16 06:57:00,
2013-11-16 02:02:00,61.0,57.1,30.00,West,261,0.0,0.0,87,0.00,,---,0.00,VWS V14.01,2013-11-16 07:02:00,
2013-11-16 02:07:00,61.0,57.1,30.00,West,261,0.0,0.0,87,0.00,,---,0.00,VWS V14.01,2013-11-16 07:07:00,
2013-11-16 02:12:00,61.0,57.1,30.00,West,261,0.0,0.0,87,0.00,,---,0.00,VWS V14.01,2013-11-16 07:12:00,
2013-11-16 02:17:00,61.2,57.3,30.00,West,261,0.0,0.0,87,0.00,,---,0.00,VWS V14.01,2013-11-16 07:17:00,
2013-11-16 02:22:00,61.2,57.3,30.00,West,261,0.0,0.0,87,0.00,,---,0.00,VWS V14.01,2013-11-16 07:22:00,
2013-11-16 02:27:00,61.2,57.3,30.00,West,261,0.0,0.0,87,0.00,,---,0.00,VWS V14.01,2013-11-16 07:27:00,
2013-11-16 02:32:00,61.2,57.3,30.00,West,261,0.0,0.0,87,0.00,,---,0.00,VWS V14.01,2013-11-16 07:32:00,
2013-11-16 02:37:00,61.2,57.3,30.00,SW,225,0.0,0.0,87,0.00,,---,0.00,VWS V14.01,2013-11-16 07:37:00,
2013-11-16 02:42:00,61.2,57.3,30.00,SW,226,0.0,0.0,87,0.00,,---,0.00,VWS V14.01,2013-11-16 07:42:00,
2013-11-16 02:47:00,61.2,57.3,30.00,ESE,102,0.0,0.0,87,0.00,,---,0.00,VWS V14.01,2013-11-16 07:47:00,
2013-11-16 02:52:00,61.0,57.1,30.00,ENE,65,0.0,0.0,87,0.00,,---,0.00,VWS V14.01,2013-11-16 07:52:00,
2013-11-16 02:57:00,61.0,57.1,30.00,ENE,65,0.0,0.0,87,0.00,,---,0.00,VWS V14.01,2013-11-16 07:57:00,
2013-11-16 03:02:00,61.0,57.1,30.00,ENE,65,0.0,0.0,87,0.00,,---,0.00,VWS V14.01,2013-11-16 08:02:00,
2013-11-16 03:07:00,61.0,57.1,30.00,ENE,65,0.0,0.0,87,0.00,,---,0.00,VWS V14.01,2013-11-16 08:07:00,
2013-11-16 03:12:00,61.0,57.1,30.00,ENE,65,0.0,0.0,87,0.00,,---,0.00,VWS V14.01,2013-11-16 08:12:00,
2013-11-16 03:18:00,61.0,57.4,30.00,NE,44,0.0,0.0,88,0.00,,---,0.00,VWS V14.01,2013-11-16 08:18:00,
2013-11-16 03:22:00,61.0,57.4,30.00,NE,45,0.0,0.0,88,0.00,,---,0.00,VWS V14.01,2013-11-16 08:22:00,
2013-11-16 03:27:00,61.0,57.4,30.00,NNE,32,0.0,0.0,88,0.00,,---,0.00,VWS V14.01,2013-11-16 08:27:00,
2013-11-16 03:32:00,61.0,57.4,30.00,North,9,0.0,0.0,88,0.00,,---,0.00,VWS V14.01,2013-11-16 08:32:00,
2013-11-16 03:38:00,61.0,57.4,30.00,North,1,0.0,0.0,88,0.00,,---,0.00,VWS V14.01,2013-11-16 08:38:00,
2013-11-16 03:43:00,61.0,57.4,30.00,North,1,0.0,0.0,88,0.00,,---,0.00,VWS V14.01,2013-11-16 08:43:00,
2013-11-16 03:48:00,61.0,57.4,30.00,NNE,24,0.0,2.2,88,0.00,,---,0.00,VWS V14.01,2013-11-16 08:48:00,
2013-11-16 03:52:00,61.0,57.4,30.00,North,3,0.0,0.0,88,0.00,,---,0.00,VWS V14.01,2013-11-16 08:52:00,
2013-11-16 03:58:00,61.2,57.6,30.00,NNE,31,0.0,0.0,88,0.00,,---,0.00,VWS V14.01,2013-11-16 08:58:00,
2013-11-16 04:03:00,61.2,57.9,30.00,NNE,15,0.0,0.0,89,0.00,,---,0.00,VWS V14.01,2013-11-16 09:03:00,
2013-11-16 04:08:00,61.2,57.9,30.00,NE,49,0.0,0.0,89,0.00,,---,0.00,VWS V14.01,2013-11-16 09:08:00,
2013-11-16 04:13:00,61.2,57.9,30.00,NNE,30,0.0,0.0,89,0.00,,---,0.00,VWS V14.01,2013-11-16 09:13:00,
2013-11-16 04:18:00,61.2,57.9,30.00,NNE,30,0.0,0.0,89,0.00,,---,0.00,VWS V14.01,2013-11-16 09:18:00,
2013-11-16 04:23:00,61.2,57.9,30.00,NNE,30,0.0,0.0,89,0.00,,---,0.00,VWS V14.01,2013-11-16 09:23:00,
2013-11-16 04:28:00,61.2,57.9,30.00,NNE,14,0.0,0.0,89,0.00,,---,0.00,VWS V14.01,2013-11-16 09:28:00,
2013-11-16 04:33:00,61.3,58.1,30.00,NNW,339,0.0,0.0,89,0.00,,---,0.00,VWS V14.01,2013-11-16 09:33:00,
2013-11-16 04:38:00,61.3,58.1,30.00,WSW,239,0.0,0.0,89,0.00,,---,0.00,VWS V14.01,2013-11-16 09:38:00,
2013-11-16 04:43:00,61.3,58.1,30.00,NNE,14,0.0,0.0,89,0.00,,---,0.00,VWS V14.01,2013-11-16 09:43:00,
2013-11-16 04:48:00,61.3,58.1,30.00,ENE,71,0.0,0.0,89,0.00,,---,0.00,VWS V14.01,2013-11-16 09:48:00,
2013-11-16 04:52:00,61.3,58.4,30.00,NNE,12,0.0,0.0,90,0.00,,---,0.00,VWS V14.01,2013-11-16 09:52:00,
2013-11-16 04:58:00,61.3,58.4,30.00,NNE,12,0.0,0.0,90,0.00,,---,0.00,VWS V14.01,2013-11-16 09:58:00,
2013-11-16 05:03:00,61.3,58.4,30.00,SE,129,0.0,0.0,90,0.00,,---,0.00,VWS V14.01,2013-11-16 10:03:00,
2013-11-16 05:08:00,61.5,58.6,30.00,SE,129,0.0,0.0,90,0.00,,---,0.00,VWS V14.01,2013-11-16 10:08:00,
2013-11-16 05:13:00,61.5,58.6,30.00,SE,136,0.0,0.0,90,0.00,,---,0.00,VWS V14.01,2013-11-16 10:13:00,
2013-11-16 05:18:00,61.5,58.6,30.00,ESE,120,0.0,0.0,90,0.00,,---,0.00,VWS V14.01,2013-11-16 10:18:00,
2013-11-16 05:23:00,61.5,58.6,30.00,NNW,333,0.0,0.0,90,0.00,,---,0.00,VWS V14.01,2013-11-16 10:23:00,
2013-11-16 05:28:00,61.7,58.7,30.00,NNE,32,0.0,0.0,90,0.00,,---,0.00,VWS V14.01,2013-11-16 10:28:00,
2013-11-16 05:33:00,61.7,59.0,30.00,NNE,24,0.0,0.0,91,0.00,,---,0.00,VWS V14.01,2013-11-16 10:33:00,
2013-11-16 05:38:00,61.7,59.0,30.00,North,5,0.0,0.0,91,0.00,,---,0.00,VWS V14.01,2013-11-16 10:38:00,
2013-11-16 05:43:00,61.7,59.0,30.00,ENE,68,0.0,0.0,91,0.00,,---,0.00,VWS V14.01,2013-11-16 10:43:00,
2013-11-16 05:48:00,61.9,59.2,30.03,SE,143,0.0,0.0,91,0.00,,---,0.00,VWS V14.01,2013-11-16 10:48:00,
2013-11-16 05:53:00,61.9,59.2,30.03,North,7,0.0,0.0,91,0.00,,---,0.00,VWS V14.01,2013-11-16 10:53:00,
2013-11-16 05:58:00,61.9,59.2,30.03,ESE,111,0.0,0.0,91,0.00,,---,0.00,VWS V14.01,2013-11-16 10:58:00,
2013-11-16 06:03:00,61.9,59.2,30.00,NE,49,0.0,0.0,91,0.00,,---,0.00,VWS V14.01,2013-11-16 11:03:00,
2013-11-16 06:08:00,62.1,59.7,30.00,NNE,21,0.0,0.0,92,0.00,,---,0.00,VWS V14.01,2013-11-16 11:08:00,
2013-11-16 06:13:00,62.1,59.7,30.00,North,353,0.0,0.0,92,0.00,,---,0.00,VWS V14.01,2013-11-16 11:13:00,
2013-11-16 06:18:00,62.2,59.9,30.03,NE,45,2.7,2.7,92,0.00,,---,0.00,VWS V14.01,2013-11-16 11:18:00,
2013-11-16 06:23:00,62.2,59.9,30.03,NNW,334,0.0,0.0,92,0.00,,---,0.00,VWS V14.01,2013-11-16 11:23:00,
2013-11-16 06:28:00,62.2,59.9,30.03,North,11,0.0,0.0,92,0.00,,---,0.00,VWS V14.01,2013-11-16 11:28:00,
2013-11-16 06:33:00,62.4,60.1,30.03,NNE,29,0.0,0.0,92,0.00,,---,0.00,VWS V14.01,2013-11-16 11:33:00,
2013-11-16 06:38:00,62.6,60.2,30.03,North,3,4.0,4.0,92,0.00,,---,0.00,VWS V14.01,2013-11-16 11:38:00,
2013-11-16 06:43:00,62.6,60.2,30.03,NNW,336,0.0,0.0,92,0.00,,---,0.00,VWS V14.01,2013-11-16 11:43:00,
2013-11-16 06:48:00,62.6,60.2,30.03,NNE,24,0.0,2.2,92,0.00,,---,0.00,VWS V14.01,2013-11-16 11:48:00,
2013-11-16 06:53:00,62.8,60.4,30.03,North,0,0.0,0.0,92,0.00,,---,0.00,VWS V14.01,2013-11-16 11:53:00,
2013-11-16 06:58:00,63.0,60.6,30.03,ENE,74,0.0,2.2,92,0.00,,---,0.00,VWS V14.01,2013-11-16 11:58:00,
2013-11-16 07:03:00,63.0,60.6,30.03,NE,51,0.0,0.0,92,0.00,,---,0.00,VWS V14.01,2013-11-16 12:03:00,
2013-11-16 07:08:00,63.0,60.6,30.03,NE,36,0.0,0.0,92,0.00,,---,0.00,VWS V14.01,2013-11-16 12:08:00,
2013-11-16 07:13:00,63.1,60.8,30.03,NNE,16,0.0,0.0,92,0.00,,---,0.00,VWS V14.01,2013-11-16 12:13:00,
2013-11-16 07:18:00,63.1,60.8,30.03,ESE,114,0.0,0.0,92,0.00,,---,0.00,VWS V14.01,2013-11-16 12:18:00,
2013-11-16 07:23:00,63.1,60.8,30.03,NE,38,0.0,0.0,92,0.00,,---,0.00,VWS V14.01,2013-11-16 12:23:00,
2013-11-16 07:28:00,63.3,61.3,30.03,East,86,0.0,0.0,93,0.00,,---,0.00,VWS V14.01,2013-11-16 12:28:00,
2013-11-16 07:33:00,63.3,61.3,30.03,North,353,0.0,0.0,93,0.00,,---,0.00,VWS V14.01,2013-11-16 12:33:00,
2013-11-16 07:38:00,63.5,61.4,30.03,NW,322,0.0,0.0,93,0.00,,---,0.00,VWS V14.01,2013-11-16 12:38:00,
2013-11-16 07:43:00,63.5,61.4,30.03,East,84,2.2,3.1,93,0.00,,---,0.00,VWS V14.01,2013-11-16 12:43:00,
2013-11-16 07:48:00,63.7,61.9,30.03,SE,139,0.0,3.1,94,0.00,,---,0.00,VWS V14.01,2013-11-16 12:48:00,
2013-11-16 07:53:00,63.9,61.8,30.03,ENE,61,0.0,0.0,93,0.00,,---,0.00,VWS V14.01,2013-11-16 12:53:00,
2013-11-16 07:58:00,63.9,61.8,30.03,ENE,71,0.0,0.0,93,0.00,,---,0.00,VWS V14.01,2013-11-16 12:58:00,
2013-11-16 08:03:00,63.9,61.8,30.06,NNE,29,0.0,0.0,93,0.00,,---,0.00,VWS V14.01,2013-11-16 13:03:00,
2013-11-16 08:08:00,63.9,62.1,30.06,NE,37,3.1,3.1,94,0.00,,---,0.00,VWS V14.01,2013-11-16 13:08:00,
2013-11-16 08:13:00,64.0,62.3,30.06,North,6,0.0,0.0,94,0.00,,---,0.00,VWS V14.01,2013-11-16 13:13:00,
2013-11-16 08:18:00,64.0,62.3,30.06,ENE,66,2.2,3.1,94,0.00,,---,0.00,VWS V14.01,2013-11-16 13:18:00,
2013-11-16 08:23:00,64.2,62.5,30.06,ENE,68,0.0,2.7,94,0.00,,---,0.00,VWS V14.01,2013-11-16 13:23:00,
2013-11-16 08:28:00,64.2,62.5,30.06,NE,40,0.0,0.0,94,0.00,,---,0.00,VWS V14.01,2013-11-16 13:28:00,
2013-11-16 08:33:00,64.4,62.6,30.06,WNW,293,0.0,0.0,94,0.00,,---,0.00,VWS V14.01,2013-11-16 13:33:00,
2013-11-16 08:38:00,64.4,62.9,30.06,SE,135,0.0,0.0,95,0.00,,---,0.00,VWS V14.01,2013-11-16 13:38:00,
2013-11-16 08:43:00,64.6,63.1,30.06,NNE,33,0.0,2.7,95,0.00,,---,0.00,VWS V14.01,2013-11-16 13:43:00,
2013-11-16 08:48:00,64.8,63.3,30.06,NE,56,0.0,2.2,95,0.00,,---,0.00,VWS V14.01,2013-11-16 13:48:00,
2013-11-16 08:53:00,64.9,63.5,30.06,NNE,29,0.0,3.6,95,0.00,,---,0.00,VWS V14.01,2013-11-16 13:53:00,
2013-11-16 08:58:00,64.9,63.8,30.06,ENE,59,0.0,0.0,96,0.00,,---,0.00,VWS V14.01,2013-11-16 13:58:00,
2013-11-16 09:03:00,65.1,64.0,30.03,ENE,69,2.2,5.4,96,0.00,,---,0.00,VWS V14.01,2013-11-16 14:03:00,
2013-11-16 09:08:00,65.3,64.1,30.03,NNE,17,0.0,0.0,96,0.00,,---,0.00,VWS V14.01,2013-11-16 14:08:00,
2013-11-16 09:13:00,65.5,64.3,30.03,North,7,0.0,0.0,96,0.00,,---,0.00,VWS V14.01,2013-11-16 14:13:00,
2013-11-16 09:18:00,65.7,64.5,30.06,East,83,2.2,2.2,96,0.00,,---,0.00,VWS V14.01,2013-11-16 14:18:00,
2013-11-16 09:23:00,65.7,64.5,30.06,ENE,68,0.0,0.0,96,0.00,,---,0.00,VWS V14.01,2013-11-16 14:23:00,
2013-11-16 09:28:00,65.7,64.5,30.06,NE,47,0.0,0.0,96,0.00,,---,0.00,VWS V14.01,2013-11-16 14:28:00,
2013-11-16 09:33:00,65.8,64.7,30.06,NNW,345,0.0,0.0,96,0.00,,---,0.00,VWS V14.01,2013-11-16 14:33:00,
2013-11-16 09:38:00,65.8,64.7,30.06,North,6,3.1,3.1,96,0.00,,---,0.00,VWS V14.01,2013-11-16 14:38:00,
2013-11-16 09:43:00,66.2,65.3,30.06,ENE,73,0.0,0.0,97,0.00,,---,0.00,VWS V14.01,2013-11-16 14:43:00,
2013-11-16 09:48:00,66.4,65.5,30.09,NW,322,0.0,0.0,97,0.00,,---,0.00,VWS V14.01,2013-11-16 14:48:00,
2013-11-16 09:53:00,66.7,65.9,30.09,North,353,5.4,6.3,97,0.00,,---,0.00,VWS V14.01,2013-11-16 14:53:00,
2013-11-16 09:58:00,66.7,65.9,30.09,ESE,113,0.0,0.0,97,0.00,,---,0.00,VWS V14.01,2013-11-16 14:58:00,
2013-11-16 10:03:00,67.1,66.5,30.09,NNE,18,0.0,0.0,98,0.00,,---,0.00,VWS V14.01,2013-11-16 15:03:00,
2013-11-16 10:08:00,67.3,66.7,30.09,North,0,2.2,2.2,98,0.00,,---,0.00,VWS V14.01,2013-11-16 15:08:00,
2013-11-16 10:13:00,67.6,67.1,30.09,ENE,78,2.2,2.2,98,0.00,,---,0.00,VWS V14.01,2013-11-16 15:13:00,
2013-11-16 10:18:00,67.8,67.2,30.09,East,88,3.1,3.1,98,0.00,,---,0.00,VWS V14.01,2013-11-16 15:18:00,
2013-11-16 10:23:00,68.0,67.1,30.09,NE,47,0.0,0.0,97,0.00,,---,0.00,VWS V14.01,2013-11-16 15:23:00,
2013-11-16 10:28:00,68.4,67.8,30.09,East,80,0.0,0.0,98,0.00,,---,0.00,VWS V14.01,2013-11-16 15:28:00,
2013-11-16 10:33:00,68.5,68.0,30.09,NE,54,0.0,0.0,98,0.00,,---,0.00,VWS V14.01,2013-11-16 15:33:00,
2013-11-16 10:38:00,68.9,68.3,30.09,ENE,77,2.7,4.0,98,0.00,,---,0.00,VWS V14.01,2013-11-16 15:38:00,
2013-11-16 10:43:00,68.9,68.3,30.09,East,82,0.0,0.0,98,0.00,,---,0.00,VWS V14.01,2013-11-16 15:43:00,
2013-11-16 10:48:00,69.1,68.2,30.09,NE,49,0.0,0.0,97,0.00,,---,0.00,VWS V14.01,2013-11-16 15:48:00,
2013-11-16 10:53:00,69.1,68.2,30.09,NE,53,0.0,3.6,97,0.00,,---,0.00,VWS V14.01,2013-11-16 15:53:00,
2013-11-16 10:58:00,69.3,68.4,30.09,NNE,25,0.0,0.0,97,0.00,,---,0.00,VWS V14.01,2013-11-16 15:58:00,
2013-11-16 11:03:00,69.4,68.6,30.09,East,84,0.0,0.0,97,0.00,,---,0.00,VWS V14.01,2013-11-16 16:03:00,
2013-11-16 11:08:00,69.6,68.4,30.09,NW,304,0.0,0.0,96,0.00,,---,0.00,VWS V14.01,2013-11-16 16:08:00,
2013-11-16 11:13:00,70.0,68.8,30.09,East,85,0.0,0.0,96,0.00,,---,0.00,VWS V14.01,2013-11-16 16:13:00,
2013-11-16 11:18:00,70.2,69.0,30.06,ENE,70,0.0,0.0,96,0.00,,---,0.00,VWS V14.01,2013-11-16 16:18:00,
2013-11-16 11:23:00,70.5,69.3,30.06,NW,321,0.0,0.0,96,0.00,,---,0.00,VWS V14.01,2013-11-16 16:23:00,
2013-11-16 11:28:00,70.7,69.5,30.06,ESE,116,0.0,0.0,96,0.00,,---,0.00,VWS V14.01,2013-11-16 16:28:00,
2013-11-16 11:33:00,71.1,69.6,30.06,North,8,0.0,0.0,95,0.00,,---,0.00,VWS V14.01,2013-11-16 16:33:00,
2013-11-16 11:38:00,71.2,69.1,30.06,NNE,14,0.0,0.0,93,0.00,,---,0.00,VWS V14.01,2013-11-16 16:38:00,
2013-11-16 11:43:00,71.2,68.5,30.06,NE,55,3.1,3.6,91,0.00,,---,0.00,VWS V14.01,2013-11-16 16:43:00,
2013-11-16 11:48:00,71.4,68.7,30.06,ENE,64,0.0,0.0,91,0.00,,---,0.00,VWS V14.01,2013-11-16 16:48:00,
2013-11-16 11:53:00,71.4,68.3,30.06,NE,42,0.0,0.0,90,0.00,,---,0.00,VWS V14.01,2013-11-16 16:53:00,
2013-11-16 11:59:00,71.6,68.2,30.06,NE,51,0.0,0.0,89,0.00,,---,0.00,VWS V14.01,2013-11-16 16:59:00,
2013-11-16 12:03:00,71.8,68.4,30.06,East,89,2.2,4.9,89,0.00,,---,0.00,VWS V14.01,2013-11-16 17:03:00,
2013-11-16 12:09:00,72.1,68.4,30.06,ENE,69,0.0,3.1,88,0.00,,---,0.00,VWS V14.01,2013-11-16 17:09:00,
2013-11-16 12:14:00,72.5,69.1,30.06,ENE,73,2.2,3.1,89,0.00,,---,0.00,VWS V14.01,2013-11-16 17:14:00,
2013-11-16 12:19:00,72.7,68.9,30.06,East,93,0.0,0.0,88,0.00,,---,0.00,VWS V14.01,2013-11-16 17:19:00,
2013-11-16 12:24:00,72.7,68.3,30.06,NNE,32,3.6,3.6,86,0.00,,---,0.00,VWS V14.01,2013-11-16 17:24:00,
2013-11-16 12:29:00,72.9,68.1,30.06,NNE,17,0.0,3.1,85,0.00,,---,0.00,VWS V14.01,2013-11-16 17:29:00,
2013-11-16 12:34:00,73.0,67.9,30.03,NE,50,2.2,2.2,84,0.00,,---,0.00,VWS V14.01,2013-11-16 17:34:00,
2013-11-16 12:39:00,73.2,67.8,30.03,ENE,62,2.2,3.1,83,0.00,,---,0.00,VWS V14.01,2013-11-16 17:39:00,
2013-11-16 12:44:00,73.2,67.4,30.03,East,84,0.0,2.7,82,0.00,,---,0.00,VWS V14.01,2013-11-16 17:44:00,
2013-11-16 12:49:00,73.2,67.4,30.03,ENE,60,0.0,0.0,82,0.00,,---,0.00,VWS V14.01,2013-11-16 17:49:00,
2013-11-16 12:54:00,73.2,67.4,30.03,NE,47,0.0,0.0,82,0.00,,---,0.00,VWS V14.01,2013-11-16 17:54:00,
2013-11-16 12:59:00,73.4,66.9,30.03,NE,55,3.1,3.6,80,0.00,,---,0.00,VWS V14.01,2013-11-16 17:59:00,
2013-11-16 13:04:00,73.6,66.3,30.03,NNE,23,0.0,2.7,78,0.00,,---,0.00,VWS V14.01,2013-11-16 18:04:00,
2013-11-16 13:09:00,73.6,65.2,30.03,ENE,77,2.7,5.8,75,0.00,,---,0.00,VWS V14.01,2013-11-16 18:09:00,
2013-11-16 13:14:00,73.8,65.7,30.03,ESE,107,0.0,0.0,76,0.00,,---,0.00,VWS V14.01,2013-11-16 18:14:00,
2013-11-16 13:19:00,73.6,65.9,30.03,ENE,66,0.0,0.0,77,0.00,,---,0.00,VWS V14.01,2013-11-16 18:19:00,
2013-11-16 13:24:00,73.4,65.8,30.03,ENE,60,0.0,0.0,77,0.00,,---,0.00,VWS V14.01,2013-11-16 18:24:00,
2013-11-16 13:29:00,73.4,65.8,30.03,ENE,71,0.0,0.0,77,0.00,,---,0.00,VWS V14.01,2013-11-16 18:29:00,
2013-11-16 13:34:00,73.2,66.0,30.03,SSW,195,0.0,0.0,78,0.00,,---,0.00,VWS V14.01,2013-11-16 18:34:00,
2013-11-16 13:39:00,73.2,66.0,30.03,NE,48,0.0,0.0,78,0.00,,---,0.00,VWS V14.01,2013-11-16 18:39:00,
2013-11-16 13:44:00,73.0,65.8,30.03,ENE,68,0.0,0.0,78,0.00,,---,0.00,VWS V14.01,2013-11-16 18:44:00,
2013-11-16 13:49:00,72.9,65.6,30.03,NE,53,4.0,4.0,78,0.00,,---,0.00,VWS V14.01,2013-11-16 18:49:00,
2013-11-16 13:54:00,72.9,64.9,30.03,ENE,61,2.7,2.7,76,0.00,,---,0.00,VWS V14.01,2013-11-16 18:54:00,
2013-11-16 13:59:00,72.5,64.5,30.03,East,81,0.0,0.0,76,0.00,,---,0.00,VWS V14.01,2013-11-16 18:59:00,
2013-11-16 14:04:00,72.3,64.3,30.03,ENE,69,0.0,0.0,76,0.00,,---,0.00,VWS V14.01,2013-11-16 19:04:00,
2013-11-16 14:09:00,72.1,64.2,30.03,ENE,64,0.0,0.0,76,0.00,,---,0.00,VWS V14.01,2013-11-16 19:09:00,
2013-11-16 14:14:00,72.0,64.0,30.03,ENE,58,2.7,2.7,76,0.00,,---,0.00,VWS V14.01,2013-11-16 19:14:00,
2013-11-16 14:19:00,71.8,64.2,30.03,North,2,0.0,0.0,77,0.00,,---,0.00,VWS V14.01,2013-11-16 19:19:00,
2013-11-16 14:24:00,71.8,64.2,30.03,ENE,71,0.0,0.0,77,0.00,,---,0.00,VWS V14.01,2013-11-16 19:24:00,
2013-11-16 14:29:00,71.6,64.0,30.03,ENE,78,0.0,0.0,77,0.00,,---,0.00,VWS V14.01,2013-11-16 19:29:00,
2013-11-16 14:34:00,71.4,63.8,30.03,East,87,3.6,3.6,77,0.00,,---,0.00,VWS V14.01,2013-11-16 19:34:00,
2013-11-16 14:39:00,71.1,63.5,30.03,NNE,32,0.0,0.0,77,0.00,,---,0.00,VWS V14.01,2013-11-16 19:39:00,
2013-11-16 14:44:00,70.9,63.7,30.03,NE,46,0.0,0.0,78,0.00,,---,0.00,VWS V14.01,2013-11-16 19:44:00,
2013-11-16 14:49:00,70.7,63.5,30.03,NE,56,0.0,0.0,78,0.00,,---,0.00,VWS V14.01,2013-11-16 19:49:00,
2013-11-16 14:54:00,70.5,63.7,30.03,NE,34,0.0,2.2,79,0.00,,---,0.00,VWS V14.01,2013-11-16 19:54:00,
2013-11-16 14:59:00,70.5,63.7,30.03,NE,56,0.0,0.0,79,0.00,,---,0.00,VWS V14.01,2013-11-16 19:59:00,
2013-11-16 15:04:00,70.3,63.5,30.03,ENE,71,0.0,0.0,79,0.00,,---,0.00,VWS V14.01,2013-11-16 20:04:00,
2013-11-16 15:09:00,70.3,63.5,30.03,ENE,71,0.0,0.0,79,0.00,,---,0.00,VWS V14.01,2013-11-16 20:09:00,
2013-11-16 15:14:00,70.2,63.3,30.03,ENE,71,0.0,0.0,79,0.00,,---,0.00,VWS V14.01,2013-11-16 20:14:00,
2013-11-16 15:19:00,70.0,63.2,30.03,ENE,71,0.0,0.0,79,0.00,,---,0.00,VWS V14.01,2013-11-16 20:19:00,
2013-11-16 15:24:00,70.0,63.5,30.03,NNE,16,0.0,0.0,80,0.00,,---,0.00,VWS V14.01,2013-11-16 20:24:00,
2013-11-16 15:29:00,70.2,63.7,30.03,North,4,0.0,0.0,80,0.00,,---,0.00,VWS V14.01,2013-11-16 20:29:00,
2013-11-16 15:34:00,70.3,64.2,30.00,North,4,0.0,0.0,81,0.00,,---,0.00,VWS V14.01,2013-11-16 20:34:00,
2013-11-16 15:39:00,70.7,64.9,30.00,NE,34,0.0,0.0,82,0.00,,---,0.00,VWS V14.01,2013-11-16 20:39:00,
2013-11-16 15:44:00,71.1,65.3,30.00,NE,41,0.0,0.0,82,0.00,,---,0.00,VWS V14.01,2013-11-16 20:44:00,
2013-11-16 15:49:00,71.2,65.5,30.03,NW,326,0.0,0.0,82,0.00,,---,0.00,VWS V14.01,2013-11-16 20:49:00,
2013-11-16 15:54:00,71.4,65.6,30.03,North,10,0.0,0.0,82,0.00,,---,0.00,VWS V14.01,2013-11-16 20:54:00,
2013-11-16 15:59:00,71.4,65.3,30.03,NE,50,0.0,0.0,81,0.00,,---,0.00,VWS V14.01,2013-11-16 20:59:00,
2013-11-16 16:04:00,71.4,64.9,30.00,NE,49,0.0,0.0,80,0.00,,---,0.00,VWS V14.01,2013-11-16 21:04:00,
2013-11-16 16:09:00,71.2,64.4,30.00,ESE,111,3.6,3.6,79,0.00,,---,0.00,VWS V14.01,2013-11-16 21:09:00,
2013-11-16 16:14:00,71.1,63.9,30.00,ENE,77,0.0,0.0,78,0.00,,---,0.00,VWS V14.01,2013-11-16 21:14:00,
2013-11-16 16:19:00,70.9,63.7,30.03,ENE,73,3.1,3.1,78,0.00,,---,0.00,VWS V14.01,2013-11-16 21:19:00,
2013-11-16 16:24:00,70.7,63.9,30.03,ENE,75,0.0,3.1,79,0.00,,---,0.00,VWS V14.01,2013-11-16 21:24:00,
2013-11-16 16:29:00,70.7,63.9,30.03,East,85,0.0,2.2,79,0.00,,---,0.00,VWS V14.01,2013-11-16 21:29:00,
2013-11-16 16:34:00,70.7,64.2,30.00,NE,43,0.0,0.0,80,0.00,,---,0.00,VWS V14.01,2013-11-16 21:34:00,
2013-11-16 16:39:00,70.7,64.2,30.00,ESE,112,2.7,2.7,80,0.00,,---,0.00,VWS V14.01,2013-11-16 21:39:00,
2013-11-16 16:44:00,70.7,64.2,30.00,NE,54,0.0,0.0,80,0.00,,---,0.00,VWS V14.01,2013-11-16 21:44:00,
2013-11-16 16:49:00,70.5,64.1,30.03,East,79,0.0,0.0,80,0.00,,---,0.00,VWS V14.01,2013-11-16 21:49:00,
2013-11-16 16:54:00,70.5,63.7,30.03,ENE,66,2.2,2.7,79,0.00,,---,0.00,VWS V14.01,2013-11-16 21:54:00,
2013-11-16 16:59:00,70.3,63.9,30.03,NNE,16,0.0,2.7,80,0.00,,---,0.00,VWS V14.01,2013-11-16 21:59:00,
2013-11-16 17:04:00,70.2,63.7,30.03,NNE,16,0.0,0.0,80,0.00,,---,0.00,VWS V14.01,2013-11-16 22:04:00,
2013-11-16 17:09:00,70.0,63.5,30.03,ENE,61,0.0,0.0,80,0.00,,---,0.00,VWS V14.01,2013-11-16 22:09:00,
2013-11-16 17:14:00,69.8,63.7,30.03,NNW,337,0.0,0.0,81,0.00,,---,0.00,VWS V14.01,2013-11-16 22:14:00,
2013-11-16 17:19:00,69.8,63.7,30.03,NE,51,0.0,0.0,81,0.00,,---,0.00,VWS V14.01,2013-11-16 22:19:00,
2013-11-16 17:24:00,69.6,63.5,30.03,NE,51,0.0,0.0,81,0.00,,---,0.00,VWS V14.01,2013-11-16 22:24:00,
2013-11-16 17:29:00,69.6,63.9,30.03,NE,52,0.0,0.0,82,0.00,,---,0.00,VWS V14.01,2013-11-16 22:29:00,
2013-11-16 17:34:00,69.6,63.9,30.03,ENE,65,0.0,0.0,82,0.00,,---,0.00,VWS V14.01,2013-11-16 22:34:00,
2013-11-16 17:39:00,69.4,63.7,30.03,ENE,63,0.0,0.0,82,0.00,,---,0.00,VWS V14.01,2013-11-16 22:39:00,
2013-11-16 17:44:00,69.4,64.1,30.03,North,5,0.0,0.0,83,0.00,,---,0.00,VWS V14.01,2013-11-16 22:44:00,
2013-11-16 17:49:00,69.3,63.9,30.03,East,90,0.0,2.7,83,0.00,,---,0.00,VWS V14.01,2013-11-16 22:49:00,
2013-11-16 17:54:00,69.3,63.9,30.03,East,80,0.0,0.0,83,0.00,,---,0.00,VWS V14.01,2013-11-16 22:54:00,
2013-11-16 17:59:00,69.1,64.1,30.03,ENE,75,0.0,0.0,84,0.00,,---,0.00,VWS V14.01,2013-11-16 22:59:00,
2013-11-16 18:04:00,69.1,64.1,30.03,East,83,0.0,0.0,84,0.00,,---,0.00,VWS V14.01,2013-11-16 23:04:00,
2013-11-16 18:09:00,69.1,64.1,30.03,ENE,61,0.0,0.0,84,0.00,,---,0.00,VWS V14.01,2013-11-16 23:09:00,
2013-11-16 18:14:00,68.9,63.9,30.03,ENE,63,0.0,0.0,84,0.00,,---,0.00,VWS V14.01,2013-11-16 23:14:00,
2013-11-16 18:19:00,68.9,64.6,30.03,ENE,63,0.0,0.0,86,0.00,,---,0.00,VWS V14.01,2013-11-16 23:19:00,
2013-11-16 18:24:00,68.9,64.6,30.03,NE,42,0.0,0.0,86,0.00,,---,0.00,VWS V14.01,2013-11-16 23:24:00,
2013-11-16 18:29:00,68.9,64.6,30.03,NE,52,0.0,0.0,86,0.00,,---,0.00,VWS V14.01,2013-11-16 23:29:00,
2013-11-16 18:34:00,68.7,64.4,30.03,East,79,0.0,0.0,86,0.00,,---,0.00,VWS V14.01,2013-11-16 23:34:00,
2013-11-16 18:39:00,68.7,64.4,30.03,East,79,0.0,0.0,86,0.00,,---,0.00,VWS V14.01,2013-11-16 23:39:00,
2013-11-16 18:44:00,68.7,64.4,30.03,ENE,77,0.0,0.0,86,0.00,,---,0.00,VWS V14.01,2013-11-16 23:44:00,
2013-11-16 18:50:00,68.7,64.4,30.03,NE,48,0.0,0.0,86,0.00,,---,0.00,VWS V14.01,2013-11-16 23:50:00,
2013-11-16 18:54:00,68.7,64.4,30.03,NE,53,0.0,0.0,86,0.00,,---,0.00,VWS V14.01,2013-11-16 23:54:00,
2013-11-16 18:59:00,68.7,64.4,30.03,ESE,102,0.0,0.0,86,0.00,,---,0.00,VWS V14.01,2013-11-16 23:59:00,
2013-11-16 19:04:00,68.7,64.4,30.03,ENE,74,2.2,2.2,86,0.00,,---,0.00,VWS V14.01,2013-11-17 00:04:00,
2013-11-16 19:10:00,68.7,64.4,30.03,NE,55,0.0,0.0,86,0.00,,---,0.00,VWS V14.01,2013-11-17 00:10:00,
2013-11-16 19:15:00,68.7,64.4,30.03,ENE,68,0.0,0.0,86,0.00,,---,0.00,VWS V14.01,2013-11-17 00:15:00,
2013-11-16 19:20:00,68.7,64.4,30.03,ENE,57,0.0,0.0,86,0.00,,---,0.00,VWS V14.01,2013-11-17 00:20:00,
2013-11-16 19:25:00,68.7,64.7,30.03,ENE,62,0.0,0.0,87,0.00,,---,0.00,VWS V14.01,2013-11-17 00:25:00,
2013-11-16 19:30:00,68.7,64.7,30.03,ENE,78,0.0,0.0,87,0.00,,---,0.00,VWS V14.01,2013-11-17 00:30:00,
2013-11-16 19:35:00,68.7,64.7,30.06,NNE,14,0.0,0.0,87,0.00,,---,0.00,VWS V14.01,2013-11-17 00:35:00,
2013-11-16 19:40:00,68.7,64.7,30.06,ENE,64,2.7,2.7,87,0.00,,---,0.00,VWS V14.01,2013-11-17 00:40:00,
2013-11-16 19:45:00,68.7,64.7,30.06,ENE,76,0.0,0.0,87,0.00,,---,0.00,VWS V14.01,2013-11-17 00:45:00,
2013-11-16 19:50:00,68.5,64.5,30.06,NE,47,0.0,0.0,87,0.00,,---,0.00,VWS V14.01,2013-11-17 00:50:00,
2013-11-16 19:55:00,68.7,64.7,30.06,NE,45,0.0,0.0,87,0.00,,---,0.00,VWS V14.01,2013-11-17 00:55:00,
2013-11-16 20:00:00,68.7,64.7,30.06,NE,45,0.0,0.0,87,0.00,,---,0.00,VWS V14.01,2013-11-17 01:00:00,
2013-11-16 20:05:00,68.7,64.7,30.06,NE,45,0.0,0.0,87,0.00,,---,0.00,VWS V14.01,2013-11-17 01:05:00,
2013-11-16 20:10:00,68.5,64.5,30.06,NE,45,0.0,0.0,87,0.00,,---,0.00,VWS V14.01,2013-11-17 01:10:00,
2013-11-16 20:15:00,68.5,64.5,30.06,ENE,66,0.0,0.0,87,0.00,,---,0.00,VWS V14.01,2013-11-17 01:15:00,
2013-11-16 20:20:00,68.5,64.5,30.06,ENE,73,0.0,0.0,87,0.00,,---,0.00,VWS V14.01,2013-11-17 01:20:00,
2013-11-16 20:25:00,68.5,64.5,30.06,ENE,73,0.0,0.0,87,0.00,,---,0.00,VWS V14.01,2013-11-17 01:25:00,
2013-11-16 20:30:00,68.5,64.5,30.06,ENE,73,0.0,0.0,87,0.00,,---,0.00,VWS V14.01,2013-11-17 01:30:00,
2013-11-16 20:35:00,68.5,64.5,30.06,NW,324,0.0,0.0,87,0.00,,---,0.00,VWS V14.01,2013-11-17 01:35:00,
2013-11-16 20:40:00,68.4,64.3,30.06,NW,324,0.0,0.0,87,0.00,,---,0.00,VWS V14.01,2013-11-17 01:40:00,
2013-11-16 20:45:00,68.4,64.3,30.06,North,10,0.0,0.0,87,0.00,,---,0.00,VWS V14.01,2013-11-17 01:45:00,
2013-11-16 20:50:00,68.4,64.3,30.06,ENE,70,0.0,0.0,87,0.00,,---,0.00,VWS V14.01,2013-11-17 01:50:00,
2013-11-16 20:55:00,68.2,64.2,30.06,ENE,70,0.0,0.0,87,0.00,,---,0.00,VWS V14.01,2013-11-17 01:55:00,
2013-11-16 21:00:00,68.2,64.2,30.06,ENE,70,0.0,0.0,87,0.00,,---,0.00,VWS V14.01,2013-11-17 02:00:00,
2013-11-16 21:05:00,68.2,64.2,30.06,ENE,70,0.0,0.0,87,0.00,,---,0.00,VWS V14.01,2013-11-17 02:05:00,
2013-11-16 21:10:00,68.0,64.0,30.06,ENE,70,0.0,0.0,87,0.00,,---,0.00,VWS V14.01,2013-11-17 02:10:00,
2013-11-16 21:15:00,68.0,64.0,30.06,ENE,70,0.0,0.0,87,0.00,,---,0.00,VWS V14.01,2013-11-17 02:15:00,
2013-11-16 21:20:00,67.8,63.8,30.06,ENE,70,0.0,0.0,87,0.00,,---,0.00,VWS V14.01,2013-11-17 02:20:00,
2013-11-16 21:25:00,67.8,63.8,30.06,ENE,70,0.0,0.0,87,0.00,,---,0.00,VWS V14.01,2013-11-17 02:25:00,
2013-11-16 21:30:00,67.8,63.8,30.06,ENE,70,0.0,0.0,87,0.00,,---,0.00,VWS V14.01,2013-11-17 02:30:00,
2013-11-16 21:35:00,67.6,63.6,30.06,ENE,70,0.0,0.0,87,0.00,,---,0.00,VWS V14.01,2013-11-17 02:35:00,
2013-11-16 21:40:00,67.5,63.5,30.06,ENE,70,0.0,0.0,87,0.00,,---,0.00,VWS V14.01,2013-11-17 02:40:00,
2013-11-16 21:45:00,67.5,63.5,30.06,ENE,70,0.0,0.0,87,0.00,,---,0.00,VWS V14.01,2013-11-17 02:45:00,
2013-11-16 21:50:00,67.5,63.8,30.06,ENE,70,0.0,0.0,88,0.00,,---,0.00,VWS V14.01,2013-11-17 02:50:00,
2013-11-16 21:55:00,67.5,63.8,30.06,ENE,70,0.0,0.0,88,0.00,,---,0.00,VWS V14.01,2013-11-17 02:55:00,
2013-11-16 22:00:00,67.6,64.0,30.06,ENE,70,0.0,0.0,88,0.00,,---,0.00,VWS V14.01,2013-11-17 03:00:00,
2013-11-16 22:05:00,67.6,64.0,30.06,ENE,70,0.0,0.0,88,0.00,,---,0.00,VWS V14.01,2013-11-17 03:05:00,
2013-11-16 22:10:00,67.6,64.0,30.06,ENE,70,0.0,0.0,88,0.00,,---,0.00,VWS V14.01,2013-11-17 03:10:00,
2013-11-16 22:15:00,67.6,64.0,30.06,ENE,70,0.0,0.0,88,0.00,,---,0.00,VWS V14.01,2013-11-17 03:15:00,
2013-11-16 22:20:00,67.6,64.0,30.06,ENE,70,0.0,0.0,88,0.00,,---,0.00,VWS V14.01,2013-11-17 03:20:00,
2013-11-16 22:25:00,67.6,64.0,30.06,ENE,70,0.0,0.0,88,0.00,,---,0.00,VWS V14.01,2013-11-17 03:25:00,
2013-11-16 22:30:00,67.6,64.0,30.06,NNW,333,0.0,0.0,88,0.00,,---,0.00,VWS V14.01,2013-11-17 03:30:00,
2013-11-16 22:35:00,67.6,64.3,30.03,ENE,65,0.0,0.0,89,0.00,,---,0.00,VWS V14.01,2013-11-17 03:35:00,
2013-11-16 22:40:00,67.6,64.3,30.03,ENE,65,0.0,0.0,89,0.00,,---,0.00,VWS V14.01,2013-11-17 03:40:00,
2013-11-16 22:45:00,67.6,64.3,30.03,ENE,65,0.0,0.0,89,0.00,,---,0.00,VWS V14.01,2013-11-17 03:45:00,
2013-11-16 22:50:00,67.6,64.3,30.06,ENE,65,0.0,0.0,89,0.00,,---,0.00,VWS V14.01,2013-11-17 03:50:00,
2013-11-16 22:55:00,67.5,64.1,30.06,ENE,65,0.0,0.0,89,0.00,,---,0.00,VWS V14.01,2013-11-17 03:55:00,
2013-11-16 23:00:00,67.5,64.1,30.06,ENE,65,0.0,0.0,89,0.00,,---,0.00,VWS V14.01,2013-11-17 04:00:00,
2013-11-16 23:05:00,67.5,64.1,30.06,ENE,65,0.0,0.0,89,0.00,,---,0.00,VWS V14.01,2013-11-17 04:05:00,
2013-11-16 23:10:00,67.5,64.1,30.06,ENE,68,0.0,0.0,89,0.00,,---,0.00,VWS V14.01,2013-11-17 04:10:00,
2013-11-16 23:15:00,67.5,64.1,30.06,ENE,68,0.0,0.0,89,0.00,,---,0.00,VWS V14.01,2013-11-17 04:15:00,
2013-11-16 23:20:00,67.3,63.9,30.06,ENE,68,0.0,0.0,89,0.00,,---,0.00,VWS V14.01,2013-11-17 04:20:00,
2013-11-16 23:25:00,67.3,63.9,30.06,ENE,68,0.0,0.0,89,0.00,,---,0.00,VWS V14.01,2013-11-17 04:25:00,
2013-11-16 23:30:00,67.1,63.8,30.06,ENE,68,0.0,0.0,89,0.00,,---,0.00,VWS V14.01,2013-11-17 04:30:00,
2013-11-16 23:35:00,67.1,63.8,30.03,ENE,68,0.0,0.0,89,0.00,,---,0.00,VWS V14.01,2013-11-17 04:35:00,
2013-11-16 23:40:00,67.1,63.8,30.03,ENE,68,0.0,0.0,89,0.00,,---,0.00,VWS V14.01,2013-11-17 04:40:00,
2013-11-16 23:45:00,66.9,63.6,30.03,ENE,68,0.0,0.0,89,0.00,,---,0.00,VWS V14.01,2013-11-17 04:45:00,
2013-11-16 23:50:00,66.9,63.6,30.03,ENE,68,0.0,0.0,89,0.00,,---,0.00,VWS V14.01,2013-11-17 04:50:00,
2013-11-16 23:55:00,66.9,63.9,30.03,ENE,68,0.0,0.0,90,0.00,,---,0.00,VWS V14.01,2013-11-17 04:55:00,